Temp
8 10 11 12 13 15 16 16 17 17 15 16 16 12 11 11 9 9 10 10 9 9 8 9 8 8 8 8 9 9 10 10 9 9 9 7 8 8 7 9 8 8 8 8
9 10 12 13 14 14 15 17 17 16 15 16 16 16 13 11 11 10 11 10 9 9 9 8 8 8 9 8 9 9 9 9 9 9 8 6 9 7 9 8 8 8 8 8
11 12 12 13 13 13 14 16 17 16 14 15 16 16 14 12 12 11 11 10 10 9 9 8 8 8 8 8 9 9 9 9 9 9 9 9 8 7 8 9 9 9 8 9
11 12 12 12 13 13 15 15 16 16 15 16 15 18 15 13 13 11 11 11 9 9 9 9 8 9 9 7 9 9 9 9 9 9 9 9 9 9 8 8 8 9 9 9
11 12 11 11 12 13 15 14 15 15 15 17 16 17 14 14 13 10 12 10 10 10 9 9 9 9 9 8 9 9 9 9 9 9 9 9 9 8 8 9 9 9 9 9
11 11 11 11 12 13 13 13 13 14 15 17 17 17 14 14 13 11 10 12 11 10 10 9 9 9 9 8 7 8 9 9 9 9 9 9 8 7 8 8 9 9 9 9
10 11 11 11 12 12 13 13 14 15 16 18 17 17 14 12 12 12 11 12 12 10 10 10 9 8 8 9 8 7 8 8 8 8 9 9 9 9 9 9 8 8 9 9
11 11 11 11 12 13 13 14 16 16 18 18 18 18 13 11 10 10 11 11 10 10 10 10 9 9 8 9 8 8 8 8 8 8 8 9 9 9 9 9 9 7 9 9
12 12 11 11 12 13 13 13 15 17 18 19 17 13 11 10 9 12 11 12 11 11 10 11 10 9 9 9 8 8 8 8 8 8 8 8 8 9 9 8 9 8 8 9
10 11 10 10 10 11 12 13 14 15 17 18 18 14 14 11 9 11 12 12 11 11 11 10 10 10 9 8 8 8 7 9 8 8 8 8 8 8 9 9 9 9 8 9
9 10 10 10 10 11 11 12 14 15 16 19 19 14 10 8 8 11 12 12 13 13 12 11 11 10 10 9 8 9 7 9 8 8 8 8 8 8 8 9 9 9 9 10
8 10 11 10 10 9 11 13 13 14 15 16 17 10 8 5 11 11 12 12 12 12 12 12 11 10 9 10 10 9 8 8 9 8 8 8 8 8 8 8 9 9 9 9
7 9 11 10 9 9 10 11 12 13 14 16 17 9 7 6 9 11 10 11 11 11 11 11 11 10 9 9 9 9 10 10 8 8 8 8 8 8 8 8 8 9 9 9
7 8 8 9 11 10 10 10 10 12 13 14 15 8 6 5 7 8 8 8 9 10 11 11 10 10 10 9 9 8 8 8 9 9 8 8 8 8 8 8 8 8 9 9
6 6 7 7 7 9 10 9 9 10 12 13 10 8 7 5 4 6 6 6 7 8 8 8 8 8 9 9 8 9 8 8 9 9 8 9 8 9 8 8 8 8 9 10
6 6 6 6 6 7 8 8 8 9 10 11 10 7 5 4 3 4 5 6 6 6 8 7 7 9 9 9 9 8 8 9 9 9 9 9 9 9 9 8 8 8 9 9
5 7 7 7 6 6 6 7 8 8 9 9 10 6 4 3 3 3 3 6 6 6 6 6 6 6 7 7 7 9 9 9 10 9 9 9 9 9 9 9 9 9 8 9
4 4 6 7 7 7 6 5 7 7 6 5 6 4 4 3 2 2 2 5 5 5 5 6 6 6 7 7 7 7 8 8 9 9 9 9 10 10 10 9 9 9 9 9
3 4 5 6 7 7 4 5 5 5 4 4 3 2 2 2 2 1 4 4 5 5 5 5 5 5 6 6 6 7 7 7 8 8 9 9 10 10 10 10 10 10 9 10
3 2 4 5 6 8 5 3 3 4 4 3 2 1 1 2 4 2 3 4 4 4 4 5 5 5 5 5 6 6 6 7 7 7 8 8 9 9 9 10 10 10 10 10
2 2 2 4 5 6 2 3 3 3 3 1 1 0 1 2 3 2 3 3 3 4 4 4 4 5 6 6 6 6 6 6 7 7 7 7 8 8 8 9 9 9 10 9
3 2 2 3 5 4 1 2 2 2 0 1 0 1 2 2 2 2 2 3 3 3 4 4 4 4 5 5 6 6 6 6 6 6 6 7 8 8 8 9 9 9 9 9
0 1 0 2 2 1 -0 -0 -0 -0 -0 1 0 1 1 1 2 1 2 2 3 3 3 4 4 4 4 4 5 5 6 7 7 7 7 6 7 8 8 8 9 8 8 9
-0 -1 -1 -1 0 -1 -1 -1 0 0 -1 0 0 0 1 0 1 1 1 1 2 2 3 3 3 3 3 4 4 4 5 5 6 7 7 7 7 6 7 8 7 8 8 8
-0 -1 -1 -1 -1 -1 -1 -1 0 0 0 0 -0 -0 -0 -0 -0 0 0 1 1 2 2 2 2 3 3 3 3 4 4 4 5 6 6 7 7 7 7 7 7 8 8 8
0 -0 -1 -1 -1 -1 -1 -2 -1 -0 0 -0 -1 -1 -1 -1 -1 -0 -1 -0 0 0 1 1 2 2 2 2 3 3 3 4 4 4 5 6 7 7 7 7 7 7 8 7
Height
3146 3151 3151 3155 3158 3157 3159 3161 3159 3161 3168 3171 3171 3174 3174 3178 3180 3183 3185 3187 3193 3198 3203 3205 3209 3210 3212 3212 3214 3217 3220 3223 3225 3228 3230 3234 3235 3237 3238 3238 3239 3240 3240 3240
3148 3146 3151 3154 3156 3157 3157 3157 3157 3160 3168 3170 3169 3173 3176 3178 3181 3182 3184 3187 3190 3195 3199 3203 3207 3208 3210 3211 3213 3216 3219 3222 3225 3227 3230 3235 3237 3238 3237 3238 3240 3241 3240 3241
3144 3145 3149 3152 3154 3157 3156 3155 3156 3161 3169 3170 3171 3173 3175 3179 3182 3180 3183 3186 3189 3192 3196 3200 3203 3206 3209 3210 3211 3214 3217 3221 3224 3226 3229 3232 3234 3237 3236 3239 3240 3241 3241 3241
3143 3145 3146 3149 3151 3155 3155 3156 3157 3162 3166 3165 3169 3162 3168 3172 3178 3178 3182 3183 3186 3190 3194 3198 3201 3204 3206 3209 3210 3212 3216 3220 3223 3226 3228 3231 3233 3237 3238 3239 3243 3242 3242 3242
3140 3141 3144 3147 3150 3154 3155 3157 3158 3160 3164 3160 3163 3163 3169 3164 3172 3175 3177 3182 3184 3187 3191 3194 3197 3202 3204 3208 3209 3212 3215 3218 3221 3225 3227 3230 3232 3236 3238 3238 3239 3242 3242 3242
3137 3139 3142 3145 3149 3152 3154 3156 3161 3162 3162 3158 3156 3159 3161 3159 3164 3172 3175 3179 3183 3186 3187 3191 3195 3199 3202 3208 3209 3211 3214 3217 3220 3223 3227 3229 3231 3234 3240 3236 3241 3242 3242 3242
3135 3136 3139 3143 3146 3149 3152 3155 3156 3158 3154 3148 3153 3157 3161 3166 3168 3171 3174 3176 3181 3183 3188 3189 3192 3196 3200 3205 3209 3210 3213 3216 3219 3222 3225 3228 3230 3233 3235 3238 3241 3241 3242 3243
3129 3133 3134 3138 3141 3145 3148 3150 3144 3145 3143 3144 3147 3152 3160 3166 3168 3170 3175 3177 3179 3183 3183 3186 3190 3190 3197 3201 3207 3210 3212 3215 3218 3221 3224 3226 3228 3231 3234 3236 3238 3240 3240 3240
3123 3126 3131 3136 3140 3143 3145 3145 3143 3137 3134 3136 3142 3155 3163 3166 3166 3164 3167 3174 3179 3181 3179 3182 3187 3190 3194 3197 3204 3208 3210 3214 3217 3220 3222 3225 3227 3229 3231 3234 3236 3239 3241 3237
3123 3123 3130 3137 3137 3138 3140 3145 3143 3140 3132 3128 3132 3148 3152 3163 3164 3161 3164 3166 3167 3170 3171 3172 3181 3187 3192 3196 3201 3205 3208 3212 3216 3219 3221 3223 3226 3228 3230 3232 3234 3237 3239 3240
3126 3127 3131 3134 3137 3138 3141 3138 3138 3138 3135 3128 3127 3146 3153 3156 3157 3158 3161 3162 3163 3165 3166 3172 3174 3176 3181 3188 3198 3201 3206 3208 3213 3216 3219 3221 3224 3226 3227 3230 3232 3234 3236 3238
3127 3124 3125 3131 3133 3133 3134 3137 3139 3135 3136 3130 3127 3154 3156 3151 3153 3157 3159 3160 3162 3164 3169 3172 3173 3175 3180 3183 3186 3187 3203 3208 3209 3213 3216 3219 3221 3223 3224 3227 3229 3231 3233 3235
3127 3126 3125 3129 3134 3135 3136 3137 3137 3137 3134 3131 3127 3149 3153 3149 3149 3154 3157 3159 3160 3163 3165 3168 3173 3176 3178 3182 3186 3188 3193 3195 3209 3209 3211 3214 3217 3219 3222 3225 3227 3228 3230 3232
3127 3127 3127 3127 3125 3129 3134 3136 3139 3138 3136 3134 3129 3142 3149 3150 3149 3152 3155 3157 3158 3160 3162 3165 3169 3172 3174 3173 3183 3184 3186 3189 3192 3198 3203 3208 3212 3215 3219 3221 3223 3225 3227 3229
3130 3128 3130 3131 3131 3127 3130 3135 3137 3138 3137 3137 3137 3144 3148 3149 3150 3152 3155 3156 3158 3159 3160 3163 3165 3169 3171 3173 3177 3179 3183 3186 3190 3194 3197 3202 3205 3211 3213 3216 3218 3221 3223 3225
3129 3129 3129 3131 3133 3134 3134 3135 3137 3136 3136 3138 3139 3146 3149 3149 3149 3153 3154 3156 3157 3158 3160 3162 3164 3166 3167 3169 3171 3175 3176 3183 3187 3191 3194 3197 3200 3204 3207 3210 3213 3215 3218 3220
3127 3127 3128 3127 3129 3132 3135 3134 3135 3137 3139 3139 3137 3142 3145 3149 3150 3152 3154 3154 3156 3157 3159 3161 3162 3164 3166 3168 3170 3172 3175 3178 3180 3185 3190 3192 3195 3199 3202 3204 3207 3210 3212 3215
3125 3126 3127 3125 3126 3128 3128 3127 3131 3135 3138 3138 3137 3141 3145 3146 3147 3150 3149 3151 3153 3155 3157 3158 3160 3161 3163 3164 3166 3167 3170 3172 3174 3180 3182 3184 3188 3192 3195 3197 3200 3203 3205 3208
3122 3124 3125 3124 3120 3124 3124 3123 3127 3130 3135 3136 3137 3138 3140 3142 3146 3145 3146 3148 3150 3152 3153 3155 3157 3158 3159 3160 3162 3164 3166 3167 3169 3172 3175 3178 3180 3182 3186 3190 3192 3195 3198 3200
3120 3120 3123 3122 3121 3116 3120 3121 3122 3128 3131 3130 3135 3136 3138 3141 3147 3144 3139 3143 3145 3148 3149 3151 3154 3155 3156 3157 3159 3160 3162 3163 3165 3167 3169 3170 3173 3176 3178 3181 3184 3187 3189 3192
3117 3118 3119 3119 3119 3118 3117 3118 3121 3128 3128 3124 3129 3130 3132 3139 3136 3133 3136 3137 3139 3141 3143 3146 3147 3149 3150 3152 3154 3156 3156 3157 3159 3161 3163 3164 3166 3168 3170 3173 3175 3176 3180 3182
3115 3116 3116 3117 3115 3117 3114 3116 3123 3119 3118 3121 3123 3124 3126 3128 3132 3130 3133 3134 3134 3134 3134 3136 3139 3140 3142 3144 3147 3148 3150 3151 3153 3155 3156 3157 3159 3160 3161 3164 3166 3168 3171 3173
3114 3115 3115 3117 3115 3111 3111 3114 3112 3115 3115 3116 3118 3119 3121 3122 3124 3123 3126 3127 3128 3128 3127 3127 3128 3130 3132 3134 3135 3137 3140 3142 3145 3148 3149 3150 3151 3152 3153 3154 3156 3158 3159 3164
3110 3110 3108 3111 3110 3109 3110 3109 3110 3111 3112 3112 3114 3115 3117 3118 3118 3118 3119 3120 3121 3121 3121 3120 3121 3121 3122 3122 3123 3125 3126 3128 3131 3135 3139 3142 3143 3144 3145 3145 3147 3147 3149 3153
3108 3107 3105 3106 3106 3106 3106 3106 3106 3107 3108 3109 3110 3111 3112 3113 3113 3114 3113 3113 3113 3114 3115 3115 3114 3114 3114 3113 3113 3113 3114 3115 3116 3119 3123 3127 3130 3133 3135 3136 3137 3137 3140 3141
3104 3103 3103 3100 3104 3102 3103 3102 3102 3103 3104 3105 3106 3107 3108 3109 3109 3108 3107 3106 3106 3105 3105 3106 3106 3106 3105 3105 3104 3104 3102 3102 3102 3105 3107 3109 3113 3117 3121 3123 3125 3127 3129 3132
Wind_Speed
18 19 24 21 22 22 19 22 18 12 14 14 14 13 16 15 15 19 18 24 24 25 25 23 22 21 19 16 16 17 18 18 16 14 12 13 11 10 7 4 3 2 4 3
17 25 19 17 18 20 19 23 19 14 11 12 9 7 10 16 15 12 17 19 24 25 26 26 25 21 21 16 16 19 19 19 18 16 13 14 6 3 9 3 4 3 3 3
19 15 19 19 19 19 20 21 21 17 15 16 11 14 13 15 14 18 12 17 16 27 29 28 27 24 20 20 15 20 21 20 19 19 15 13 17 14 4 7 4 3 3 2
21 17 21 21 22 20 22 20 17 16 19 19 19 11 20 21 17 21 19 16 21 25 27 28 28 24 19 20 15 21 22 21 21 18 17 12 14 8 6 6 4 2 3 3
20 19 19 22 22 21 16 18 16 17 20 16 16 15 16 20 22 17 18 20 19 16 24 29 27 25 27 19 19 22 22 22 22 19 16 15 14 10 7 9 8 2 2 3
17 16 19 22 21 21 10 14 16 17 20 22 15 24 13 15 19 18 16 19 22 21 21 21 27 28 26 20 20 24 23 22 22 19 17 14 16 17 12 14 7 6 2 2
20 14 21 20 23 22 18 20 17 14 15 13 24 23 11 7 10 10 10 18 19 25 24 22 29 23 24 25 21 24 25 24 21 19 17 15 15 16 18 15 11 4 1 2
23 18 23 22 27 23 25 27 22 12 13 17 20 16 14 11 11 10 6 14 21 23 20 20 24 26 23 28 24 23 26 25 23 20 17 15 16 16 15 14 13 9 6 7
21 16 22 20 21 24 25 31 29 19 19 21 20 14 15 11 9 9 17 13 17 21 26 17 21 24 26 32 26 26 26 26 24 22 19 17 15 15 15 13 14 16 12 16
4 13 19 18 13 19 18 26 30 21 17 15 23 24 16 15 7 11 12 23 26 30 33 29 30 25 22 26 30 26 27 25 23 22 20 18 16 15 15 15 14 15 13 14
5 13 16 15 23 20 19 16 31 21 26 14 10 13 15 15 12 15 15 16 23 29 29 32 32 35 29 31 23 27 26 28 26 25 23 21 19 16 15 15 16 16 16 15
10 10 13 19 15 17 13 23 24 24 26 24 13 12 9 11 18 16 15 15 18 22 25 27 27 25 32 30 31 42 25 25 29 28 27 24 22 21 19 17 16 17 17 17
7 13 9 9 11 19 17 17 17 25 25 21 23 16 13 11 16 20 15 15 16 22 24 24 26 25 23 27 34 34 31 27 23 28 29 29 28 26 21 19 18 18 19 18
16 7 5 7 3 22 25 18 19 17 20 19 18 27 20 11 14 15 14 12 14 13 18 23 33 24 18 20 31 36 37 37 37 33 29 30 29 27 24 22 23 22 21 21
9 15 17 6 3 3 17 17 16 22 21 17 20 21 20 18 15 13 12 10 10 9 12 15 24 26 22 27 31 34 38 38 35 35 30 30 37 33 29 29 28 26 26 24
10 7 10 15 11 3 7 10 8 12 13 13 17 20 17 15 15 12 11 12 13 10 10 10 10 15 21 21 24 33 31 30 32 36 37 38 36 37 35 29 28 31 30 28
10 13 12 19 16 10 16 14 12 11 11 10 17 21 16 14 13 11 9 15 16 14 12 13 11 10 12 14 18 21 29 34 33 35 32 34 35 38 34 33 32 31 31 31
10 13 14 20 12 13 14 18 15 14 13 6 12 18 15 15 11 10 17 17 16 15 15 16 17 13 15 16 16 17 19 24 32 32 35 37 37 42 39 37 36 35 35 35
12 13 14 20 16 8 5 10 16 18 15 15 11 12 13 13 10 12 17 20 21 20 19 17 16 14 17 16 16 20 18 20 21 26 27 33 39 40 41 40 38 37 37 36
9 11 13 13 12 15 10 12 15 15 17 20 14 13 11 12 11 17 26 23 23 23 24 24 23 21 21 20 20 20 19 21 21 20 24 25 32 40 38 40 38 37 38 38
8 10 13 13 12 7 7 8 7 12 10 15 14 13 12 11 21 28 26 27 27 28 28 27 28 29 30 29 27 25 25 25 24 24 24 23 25 28 38 39 39 36 37 33
7 7 10 15 16 15 9 6 9 13 8 11 11 13 15 19 22 27 25 28 30 31 32 31 31 31 33 34 36 37 35 33 31 29 29 31 31 32 31 41 45 46 43 37
7 10 9 10 6 14 8 7 18 12 12 12 11 14 14 15 17 20 18 22 26 27 29 31 33 33 33 34 36 39 40 42 41 38 35 33 32 34 31 35 41 43 49 48
10 10 9 9 9 12 11 10 10 13 12 14 15 13 11 12 13 15 15 18 20 21 24 26 27 31 31 32 33 35 39 43 44 47 46 42 40 38 36 37 37 37 45 49
10 11 11 14 13 9 13 15 13 13 14 13 13 12 12 11 13 15 16 17 20 19 22 24 26 28 30 33 34 34 36 39 44 47 48 51 51 46 43 40 40 41 40 49
15 16 17 16 8 15 12 16 15 16 14 13 13 13 13 13 13 13 13 16 16 18 19 21 24 26 29 30 33 35 35 37 41 43 48 52 53 57 55 51 47 46 43 41
Wind_Direction
197 195 205 210 208 211 212 212 227 179 178 195 193 177 151 165 173 184 190 184 190 195 189 199 195 195 206 204 200 199 200 189 182 178 172 158 155 173 135 114 135 167 194 158
203 213 211 209 211 219 218 208 214 175 184 210 184 204 189 177 192 193 192 189 187 194 191 197 195 194 199 219 206 210 203 193 184 180 176 169 185 159 146 159 164 171 164 153
209 222 205 210 207 208 212 205 199 177 193 201 181 192 184 187 188 212 201 188 187 192 200 201 202 208 203 227 221 212 199 193 187 181 181 186 170 181 180 188 168 169 176 125
218 209 207 209 207 199 208 206 208 190 189 202 205 231 194 182 181 214 212 194 190 200 201 199 205 202 191 228 210 195 193 193 193 191 187 190 179 168 189 151 162 142 161 171
217 211 209 210 203 202 212 204 213 194 211 205 190 226 218 176 184 205 186 198 200 213 204 202 209 208 199 221 201 195 190 190 191 188 181 181 178 225 169 189 167 153 139 132
206 218 215 213 202 203 208 180 200 208 219 232 210 221 191 173 171 196 187 183 196 198 210 213 203 206 204 199 201 199 193 186 184 185 189 188 184 184 187 214 198 181 157 153
207 227 207 201 202 202 200 190 191 207 215 224 201 212 151 129 140 153 194 197 223 216 200 214 201 204 204 194 204 208 197 189 185 184 187 194 198 202 183 209 187 180 193 344
202 198 197 201 204 198 206 202 205 194 208 204 195 186 142 140 129 139 158 214 207 205 213 205 206 198 215 200 207 208 205 197 189 187 188 195 203 204 210 201 198 202 209 130
206 213 184 199 203 205 208 220 219 270 235 208 160 106 128 144 122 169 148 139 199 204 212 211 197 208 217 197 209 210 214 205 198 191 193 194 200 209 210 204 212 202 214 207
323 145 193 206 217 214 227 218 228 235 260 221 173 169 164 166 151 183 182 167 167 198 196 184 191 202 215 215 208 214 210 212 208 202 200 200 199 206 218 223 223 219 202 206
228 211 189 195 212 209 215 225 218 226 239 219 184 118 150 162 172 195 192 194 198 198 198 201 199 199 194 190 213 216 211 210 210 214 214 209 210 210 215 225 229 229 236 230
227 238 178 211 202 214 222 219 212 231 222 254 271 111 151 153 192 205 195 195 192 200 205 213 208 204 190 196 201 188 210 215 219 223 221 219 219 222 223 225 232 235 233 239
201 211 195 189 233 220 221 214 224 222 241 247 251 140 157 164 166 191 186 189 193 197 203 211 207 204 207 231 198 195 195 187 224 228 224 227 225 223 227 231 232 235 236 234
186 224 275 353 251 206 210 220 220 230 230 235 247 149 152 142 166 172 175 172 186 191 195 200 202 209 223 226 217 195 196 196 199 207 216 226 224 224 229 231 237 235 235 236
196 239 239 253 0 112 195 211 217 223 230 260 140 145 152 143 131 167 176 193 182 182 188 194 209 221 225 223 220 216 205 210 208 214 215 216 227 226 231 235 237 240 236 235
215 222 215 237 243 222 214 210 214 219 223 217 156 143 153 142 135 145 169 171 193 199 189 201 197 213 225 225 232 226 216 221 225 228 233 232 236 229 226 238 238 242 240 237
220 234 218 227 220 237 249 240 230 221 212 237 188 179 161 154 154 153 166 197 201 192 201 212 230 225 216 230 233 233 226 226 226 234 237 237 238 234 238 242 239 244 244 243
233 230 229 244 197 221 219 222 210 208 196 174 158 148 159 171 181 169 194 206 204 206 211 218 223 221 225 233 243 237 238 233 231 229 232 232 239 240 238 236 239 245 246 245
212 216 225 236 215 204 209 213 194 185 191 165 186 164 178 196 170 209 221 222 223 225 226 225 229 230 234 236 238 239 240 247 242 237 237 235 238 237 236 238 237 238 244 251
208 203 214 215 246 231 121 162 180 186 203 222 188 185 190 195 198 210 244 241 239 239 241 241 241 242 247 246 244 244 243 242 238 239 235 231 236 240 237 230 237 242 242 246
208 211 217 219 219 233 172 219 205 201 181 188 180 193 206 182 203 221 241 255 262 260 257 255 254 250 249 250 252 253 253 250 244 240 238 238 239 239 237 230 232 228 237 240
222 214 226 229 234 231 203 233 193 203 177 182 193 215 221 225 222 240 244 255 260 266 269 268 264 264 264 259 254 252 252 254 254 252 248 247 250 250 251 237 238 239 245 250
229 224 224 217 238 221 215 199 213 206 218 224 231 240 234 237 240 251 247 249 255 260 264 267 267 268 267 266 266 264 258 253 252 253 253 253 246 245 253 250 250 253 250 244
245 232 232 236 250 239 207 209 233 226 221 227 230 234 227 232 243 258 259 260 261 261 265 268 271 270 271 272 270 268 265 263 257 249 248 249 251 248 247 251 249 251 250 240
234 248 244 249 243 240 228 233 241 238 235 236 238 239 241 248 259 266 272 269 269 269 266 268 269 271 272 271 274 276 272 267 263 260 255 246 244 247 250 247 247 247 251 246
252 254 250 249 263 254 244 248 240 247 242 240 246 251 257 264 267 271 275 281 287 289 286 280 277 274 272 274 274 273 279 279 273 265 259 255 249 242 243 248 247 248 248 244